Hourly Data Report for July 28, 2004

TORONTO CITY
ONTARIO

43°40'00.000" N
79°24'00.000" W
112.50 m
6158355
71508
XTO

Download Data

Hourly Data (July 2004)
Hourly Data Report for July 28, 2004
TIME
LST
Temp Definition
°C
Dew Point Definition
°C
Rel Hum Definition
%
Precip. Amount Definition
mm

Wind Dir Definition
10's deg

Wind Spd Definition
km/h
Visibility Definition
km
Stn Press Definition
kPa
Hmdx Definition


Wind Chill Definition


Weather Definition


00:00 17.8 17.5 98   LegendMM LegendMM LegendMM 100.07     LegendNANA
01:00 17.9 17.6 98   LegendMM LegendMM LegendMM 100.04     LegendNANA
02:00 17.7 17.4 98   LegendMM LegendMM LegendMM 100.04     LegendNANA
03:00 17.7 17.5 99   LegendMM LegendMM LegendMM 100.02     LegendNANA
04:00 17.8 17.6 99   LegendMM LegendMM LegendMM 100.04     LegendNANA
05:00 17.9 17.7 99   LegendMM LegendMM LegendMM 100.06     LegendNANA
06:00 17.9 17.6 98   LegendMM LegendMM LegendMM 100.12     LegendNANA
07:00 18.1 17.8 98   LegendMM LegendMM LegendMM 100.14     LegendNANA
08:00 18.8 18.3 97   LegendMM LegendMM LegendMM 100.15     LegendNANA
09:00 19.2 18.3 95   LegendMM LegendMM LegendMM 100.16     LegendNANA
10:00 19.7 18.2 91   LegendMM LegendMM LegendMM 100.18     LegendNANA
11:00 19.9 18.5 92   LegendMM LegendMM LegendMM 100.18     LegendNANA
12:00 20.5 18.5 88   LegendMM LegendMM LegendMM 100.19 27   LegendNANA
13:00 19.6 18.9 96   LegendMM LegendMM LegendMM 100.17     LegendNANA
14:00 20.8 19.6 93   LegendMM LegendMM LegendMM 100.15 28   LegendNANA
15:00 21.8 19.1 85   LegendMM LegendMM LegendMM 100.13 29   LegendNANA
16:00 23.4 19.9 81   LegendMM LegendMM LegendMM 100.13 31   LegendNANA
17:00 22.1 18.8 82   LegendMM LegendMM LegendMM 100.16 29   LegendNANA
18:00 21.5 18.5 83   LegendMM LegendMM LegendMM 100.17 28   LegendNANA
19:00 20.9 18.1 84   LegendMM LegendMM LegendMM 100.17 27   LegendNANA
20:00 20.0 17.5 86   LegendMM LegendMM LegendMM 100.21 26   LegendNANA
21:00 19.1 17.2 89   LegendMM LegendMM LegendMM 100.28     LegendNANA
22:00 18.9 17.7 93   LegendMM LegendMM LegendMM 100.30     LegendNANA
23:00 18.7 18.1 96   LegendMM LegendMM LegendMM 100.29     LegendNANA

Notes on Data Quality.

Legend

  • E = Estimated
  • M = Missing
  • NA = Not Available*
  • [empty] = Indicates an unobserved value
Date modified: